Location: Lac Lasalle
(46.0398°N, 74.1576°W)
Time: 15:15:39
(UTC-05:00)

SEEDS - Pass Details

Date: 15 December 2019
Orbit: 586 x 603 km, 97.5° (Epoch: 28 January)

Event Time Altitude Azimuth Distance (km) Brightness Sun altitude
Rises 16:59:02 0° 170° (S) 2,802 ? -8.0°
Reaches altitude 10° 17:01:11 10° 172° (S) 1,908 ? -8.3°
Maximum altitude 17:05:19 75° 257° (WSW) 617 ? -9.0°
Drops below altitude 10° 17:09:31 10° 344° (NNW) 1,933 ? -9.6°
Sets 17:11:43 0° 346° (NNW) 2,843 ? -10.0°
